Wind_Speed
29 29 30 31 32 33 34 34 34 34 34 34 35 36 36 36 36 36 36 35 36 37 37 36 36 35 35 34 35 35 36 37 36 35 35 35 35 34 34 33 32 32 33
30 30 30 31 31 32 33 33 32 33 33 33 35 35 35 35 35 36 36 35 35 36 37 36 36 36 35 34 34 34 35 35 36 35 34 34 33 33 33 33 33 33 33
29 29 30 30 31 31 32 32 31 31 31 32 33 34 34 34 35 35 35 35 35 35 35 36 36 35 35 34 34 33 34 34 35 34 32 32 33 33 34 34 33 32 32
28 29 29 30 31 31 31 31 30 31 31 31 32 33 34 35 35 35 35 34 34 34 34 34 34 34 34 34 33 33 33 33 33 33 32 32 33 34 33 33 32 32 32
27 28 29 29 29 30 31 31 32 32 31 32 32 33 34 35 36 35 34 34 34 33 34 34 33 34 33 33 33 32 33 32 33 33 32 33 32 32 32 32 32 32 32
28 28 28 29 29 29 30 31 31 31 32 32 33 33 33 33 33 34 34 33 34 34 34 33 33 33 32 32 32 32 32 32 32 32 32 32 32 32 32 32 33 32 32
29 29 29 29 29 28 28 29 29 30 30 31 31 31 31 31 32 33 33 33 34 34 33 33 32 31 31 31 31 32 32 32 32 32 31 32 32 33 32 33 33 32 32
28 29 29 29 28 28 28 28 28 28 28 29 30 31 30 30 31 32 32 33 33 32 32 32 31 31 31 31 31 31 31 31 31 31 31 32 33 32 32 31 31 31 30
27 27 28 28 27 27 27 27 27 26 27 28 28 28 29 29 30 30 31 32 33 32 32 31 31 31 30 31 31 31 30 29 30 31 32 31 31 31 30 29 29 29 29
26 26 26 26 25 25 25 25 24 25 25 26 26 27 28 28 29 30 30 31 31 31 31 32 31 31 30 30 31 30 29 29 30 30 31 30 29 29 28 27 27 27 27
24 25 25 24 23 22 23 23 23 24 26 25 26 27 27 28 28 29 29 29 29 30 29 30 30 29 29 29 30 29 29 29 29 29 29 28 28 27 26 26 26 25 25
24 24 22 21 20 20 21 22 23 23 24 25 25 26 26 27 27 27 27 27 27 28 28 28 28 28 28 28 29 29 28 28 28 28 27 26 26 26 26 25 24 24 24
24 23 20 20 20 20 21 21 22 22 23 23 24 24 24 25 24 24 25 25 25 25 25 26 26 27 27 27 28 28 27 27 26 26 26 25 25 25 25 24 23 22 22
23 22 20 20 20 20 21 21 22 23 23 23 24 23 23 23 23 23 23 22 22 23 24 24 24 25 26 27 27 27 27 26 25 25 25 24 24 24 24 23 21 21 20
22 21 20 20 20 20 21 22 22 23 23 23 23 22 22 22 22 22 21 21 20 21 22 22 23 25 25 25 26 25 25 25 25 24 23 23 23 22 22 20 19 19 19
21 21 21 21 20 20 21 21 22 22 23 22 22 22 22 22 21 21 21 21 21 20 20 21 22 23 24 24 25 24 24 24 23 23 22 21 21 20 20 19 18 18 19
21 20 20 20 20 20 21 21 21 21 22 22 21 22 22 22 21 21 20 20 21 21 21 21 22 22 22 23 23 23 23 23 22 21 21 20 20 19 19 18 18 18 19
20 20 20 20 20 20 20 21 21 21 22 22 22 22 22 21 21 21 21 20 20 20 21 21 22 22 23 23 22 22 22 21 21 21 21 20 19 19 19 18 17 18 18
20 20 20 20 20 20 20 21 22 22 22 23 23 22 21 21 22 21 20 20 20 20 20 20 21 21 22 22 22 21 20 20 20 20 20 19 19 19 19 18 18 18 18
20 20 20 20 20 20 20 21 21 21 21 21 21 21 20 20 20 19 19 20 19 19 19 20 20 21 21 20 19 19 19 19 19 18 18 18 18 18 18 17 17 17 17
21 21 21 21 21 20 21 20 20 20 20 20 20 19 18 17 17 17 17 17 18 18 18 18 18 17 17 17 17 17 18 17 17 17 17 17 17 17 17 17 16 16 15
21 21 21 21 20 20 20 19 19 19 19 19 19 18 17 16 16 16 17 17 16 16 17 17 17 17 17 17 18 18 18 17 17 17 17 17 17 17 17 17 17 16 16
21 21 21 21 20 19 19 18 18 18 18 18 17 17 17 16 16 17 17 17 16 16 17 17 17 17 18 17 17 17 17 17 17 17 17 17 16 17 17 17 17 17 16
21 21 20 20 20 19 19 19 19 18 18 17 17 17 17 17 17 18 18 17 17 17 17 17 16 16 17 17 17 17 17 17 17 17 18 18 17 18 18 18 18 18 17
22 21 21 21 20 20 20 19 19 18 18 18 17 17 17 18 17 17 17 16 16 16 16 16 16 16 16 16 17 17 17 17 17 18 18 19 18 18 18 18 18 18 17
23 22 22 22 21 21 20 19 19 18 18 18 17 17 17 17 17 17 17 16 16 16 16 16 16 16 16 16 16 17 17 17 18 18 18 18 18 18 18 18 18 18 17
Wind_Direction
273 272 272 272 269 267 267 269 268 268 267 265 264 265 265 264 266 268 268 268 269 269 269 270 271 270 270 271 270 271 272 273 274 276 276 275 274 274 275 275 274 275 276
273 272 272 273 272 270 269 267 267 266 266 265 266 265 265 266 268 269 268 268 268 269 269 270 270 269 268 269 271 273 274 275 277 276 275 274 273 274 275 276 275 277 278
275 273 273 273 273 271 269 267 265 266 267 267 268 266 266 267 268 269 268 268 268 270 270 271 271 270 269 270 271 273 274 276 276 275 275 274 272 274 275 276 276 276 278
279 275 275 274 273 272 269 266 265 266 267 269 270 268 267 267 269 269 269 268 269 270 271 271 270 270 270 270 272 273 274 274 274 275 273 273 274 275 277 276 276 275 278
282 280 277 275 273 272 270 267 265 267 269 269 269 270 269 269 270 269 269 268 269 270 271 271 269 270 271 272 272 273 272 272 274 273 272 275 275 277 277 277 276 276 278
285 284 281 278 276 274 271 268 268 268 268 268 268 270 271 270 269 269 268 268 268 269 270 270 269 268 270 273 273 272 271 271 272 273 273 274 276 277 277 277 278 277 278
286 285 283 280 278 275 272 270 270 270 269 269 269 271 273 272 271 270 268 268 267 267 268 268 267 266 270 271 272 272 271 270 271 273 274 275 276 277 277 278 278 279 280
287 286 284 281 280 277 273 272 272 269 270 272 273 274 275 274 272 271 269 267 266 266 267 267 266 267 269 272 272 272 271 270 270 272 273 275 275 275 277 278 278 280 282
289 288 285 281 279 278 277 275 272 273 274 274 274 276 276 274 272 272 272 269 266 265 265 263 263 265 269 270 271 272 271 269 270 271 273 275 274 276 276 277 278 279 281
290 289 287 284 281 278 277 277 277 277 276 276 276 277 278 276 275 275 274 271 268 266 263 262 262 265 268 269 270 270 270 270 270 271 273 274 273 274 276 276 277 279 282
294 292 290 286 282 279 277 279 280 278 277 276 278 279 280 279 277 276 276 274 271 267 264 262 263 264 265 267 267 269 270 269 270 271 273 272 272 273 275 277 279 281 283
295 293 290 286 282 280 281 282 282 281 278 277 279 281 281 280 279 277 275 274 272 268 265 263 263 262 262 264 266 268 269 269 270 271 272 272 273 274 276 278 280 282 285
294 293 288 286 284 282 282 283 282 281 280 278 279 281 282 282 280 278 277 275 272 268 265 264 262 262 262 263 264 266 268 268 268 270 270 271 273 274 276 277 280 284 284
292 291 289 287 285 283 283 283 283 283 282 282 282 281 281 282 281 279 277 273 270 268 266 266 265 263 262 263 264 265 265 265 265 268 269 271 273 274 275 278 280 282 282
293 291 291 291 287 282 282 283 284 284 283 283 284 284 283 284 282 282 278 272 269 270 271 268 266 265 263 264 263 263 265 264 264 265 267 269 271 271 273 274 276 278 279
298 294 290 289 287 285 285 285 285 285 285 285 286 286 286 285 282 280 279 273 270 272 273 270 267 266 264 264 264 265 264 262 261 261 264 268 269 269 272 272 274 275 277
303 297 291 290 289 288 287 286 287 287 288 287 286 287 287 287 284 279 276 273 271 271 272 271 269 267 264 265 265 264 262 260 258 259 262 266 269 271 273 273 274 275 277
302 299 297 296 294 292 289 289 288 287 287 286 286 288 288 285 281 277 273 271 271 273 273 271 270 267 264 265 264 263 262 259 258 260 262 265 269 270 271 271 273 275 277
300 299 301 300 298 295 291 289 288 287 286 286 286 285 286 284 279 275 271 269 271 273 270 269 269 267 264 264 263 262 259 257 257 260 262 265 267 269 271 272 274 275 277
300 300 301 301 300 298 296 293 290 287 285 285 285 285 284 281 279 275 273 271 272 272 268 269 268 266 264 262 262 259 258 258 257 259 262 263 264 266 267 270 273 275 277
300 299 300 300 300 299 298 295 291 289 287 285 285 284 281 279 279 277 278 279 276 271 268 267 266 263 260 258 258 257 256 258 257 259 262 263 261 261 264 268 271 273 276
302 302 301 302 301 299 298 297 294 291 289 287 284 280 276 276 280 284 283 281 278 273 269 266 263 260 259 259 260 259 257 257 257 257 260 262 261 262 266 269 271 272 274
302 302 302 303 302 299 298 297 295 293 289 286 281 278 275 276 280 282 281 278 274 270 265 263 262 260 259 259 260 258 256 257 258 259 262 263 262 262 265 269 272 272 272
300 301 303 303 302 299 297 296 296 293 290 285 282 280 280 280 281 282 281 279 274 270 268 265 261 259 259 259 260 258 257 257 258 259 261 262 262 264 265 267 270 271 270
297 298 300 302 303 301 298 296 294 292 289 285 283 283 283 281 279 279 280 278 275 271 268 265 260 258 258 259 259 258 257 258 260 260 261 262 262 264 265 267 268 269 268
293 295 298 299 299 299 297 294 291 289 287 285 283 283 281 280 277 276 276 275 275 273 271 267 263 261 261 260 259 258 258 260 260 261 262 265 264 264 265 266 267 267 267
Height
5604 5603 5602 5602 5601 5601 5601 5600 5600 5600 5601 5601 5602 5603 5603 5604 5605 5606 5606 5607 5607 5608 5608 5608 5608 5607 5608 5608 5608 5608 5608 5608 5608 5609 5608 5608 5607 5606 5606 5605 5605 5605 5605
5596 5595 5594 5593 5592 5592 5591 5591 5591 5592 5592 5593 5593 5593 5594 5595 5596 5596 5597 5597 5598 5598 5598 5598 5598 5598 5599 5599 5599 5599 5599 5598 5598 5599 5599 5598 5598 5598 5597 5597 5597 5597 5597
5588 5587 5586 5584 5584 5583 5583 5583 5583 5583 5583 5584 5584 5584 5585 5586 5586 5587 5587 5588 5588 5589 5589 5589 5589 5589 5590 5590 5590 5590 5590 5589 5589 5589 5589 5589 5590 5589 5589 5589 5589 5589 5588
5580 5578 5577 5576 5575 5574 5574 5574 5574 5574 5575 5575 5575 5575 5576 5576 5576 5577 5577 5578 5578 5579 5579 5579 5579 5580 5581 5581 5581 5581 5581 5581 5581 5581 5581 5581 5581 5581 5580 5580 5580 5580 5580
5571 5570 5569 5567 5566 5565 5565 5565 5566 5566 5566 5566 5566 5566 5566 5566 5567 5567 5567 5568 5569 5569 5569 5569 5570 5571 5572 5572 5573 5573 5572 5572 5573 5573 5573 5573 5573 5572 5572 5572 5572 5572 5571
5563 5562 5560 5559 5558 5557 5557 5557 5557 5557 5558 5558 5558 5558 5557 5557 5557 5557 5557 5558 5559 5559 5560 5560 5560 5561 5562 5563 5563 5563 5563 5563 5564 5565 5565 5565 5565 5564 5564 5564 5564 5564 5564
5556 5554 5552 5551 5550 5549 5548 5548 5549 5549 5549 5549 5549 5549 5548 5548 5547 5547 5547 5547 5548 5549 5549 5550 5551 5552 5553 5553 5554 5554 5554 5554 5555 5556 5556 5557 5557 5557 5557 5556 5556 5555 5555
5548 5546 5544 5542 5541 5541 5540 5540 5540 5540 5540 5540 5540 5540 5539 5539 5538 5537 5537 5537 5538 5539 5539 5540 5541 5543 5544 5545 5545 5545 5546 5546 5547 5548 5548 5549 5548 5547 5547 5548 5547 5547 5546
5541 5539 5537 5535 5534 5533 5533 5532 5532 5532 5532 5532 5531 5530 5530 5529 5529 5528 5528 5527 5528 5529 5529 5530 5532 5533 5535 5536 5536 5537 5538 5538 5538 5539 5539 5539 5539 5538 5538 5539 5539 5539 5539
5534 5532 5530 5528 5527 5526 5525 5524 5524 5524 5524 5523 5523 5522 5521 5521 5520 5519 5518 5518 5519 5519 5520 5521 5522 5524 5525 5526 5528 5529 5529 5530 5531 5531 5530 5530 5530 5530 5530 5531 5531 5531 5530
5527 5525 5523 5521 5520 5519 5518 5517 5517 5516 5515 5515 5514 5514 5513 5512 5511 5510 5509 5509 5509 5510 5510 5511 5513 5515 5516 5518 5519 5520 5521 5522 5522 5523 5523 5523 5523 5523 5523 5523 5523 5523 5522
5521 5518 5516 5514 5513 5512 5511 5510 5509 5508 5507 5507 5506 5505 5504 5503 5502 5502 5501 5501 5501 5501 5502 5503 5504 5506 5507 5509 5510 5512 5513 5514 5514 5515 5515 5515 5516 5516 5516 5516 5516 5516 5515
5514 5512 5510 5508 5507 5505 5504 5503 5502 5501 5500 5500 5499 5498 5497 5496 5495 5494 5493 5492 5493 5493 5494 5494 5495 5497 5499 5500 5502 5503 5504 5505 5506 5507 5508 5508 5509 5509 5510 5510 5510 5509 5509
5507 5505 5503 5502 5500 5499 5498 5497 5496 5495 5494 5493 5492 5491 5490 5489 5488 5487 5486 5486 5486 5486 5486 5487 5488 5489 5491 5493 5494 5495 5497 5498 5499 5500 5501 5502 5503 5503 5503 5504 5504 5503 5503
5501 5499 5497 5496 5494 5493 5492 5491 5490 5489 5488 5487 5485 5485 5484 5483 5481 5480 5480 5480 5479 5480 5480 5480 5481 5482 5484 5485 5487 5488 5490 5491 5492 5494 5495 5496 5496 5497 5497 5498 5498 5498 5498
5495 5493 5491 5490 5488 5487 5486 5485 5483 5482 5481 5480 5479 5478 5477 5476 5475 5474 5474 5474 5474 5474 5474 5475 5475 5476 5478 5479 5480 5482 5483 5484 5486 5487 5489 5490 5491 5491 5492 5492 5492 5492 5492
5490 5487 5486 5484 5483 5481 5480 5479 5478 5476 5475 5474 5473 5472 5471 5470 5469 5468 5468 5468 5468 5468 5469 5469 5470 5471 5472 5473 5474 5476 5477 5478 5480 5482 5483 5484 5485 5485 5486 5487 5487 5487 5487
5485 5482 5481 5479 5477 5475 5474 5473 5472 5471 5470 5468 5467 5466 5465 5464 5463 5463 5462 5463 5463 5463 5463 5464 5464 5465 5466 5467 5468 5469 5471 5473 5474 5476 5477 5478 5479 5480 5481 5481 5482 5482 5482
5480 5478 5476 5474 5472 5470 5468 5467 5466 5465 5464 5463 5461 5460 5459 5458 5458 5457 5457 5457 5458 5458 5458 5459 5459 5459 5460 5461 5462 5463 5465 5467 5469 5470 5471 5472 5473 5475 5475 5476 5477 5477 5477
5475 5473 5471 5469 5467 5465 5463 5461 5460 5459 5458 5457 5456 5455 5454 5453 5453 5452 5452 5452 5452 5452 5453 5453 5453 5454 5454 5455 5456 5458 5459 5461 5463 5465 5466 5467 5468 5469 5470 5471 5471 5472 5472
5471 5468 5466 5464 5461 5459 5457 5456 5454 5453 5452 5451 5450 5450 5449 5449 5448 5448 5448 5447 5447 5447 5447 5448 5448 5448 5449 5450 5451 5453 5455 5456 5458 5459 5460 5462 5463 5464 5465 5466 5466 5466 5467
5465 5463 5461 5459 5456 5454 5452 5451 5449 5448 5447 5446 5445 5445 5444 5444 5444 5444 5443 5443 5442 5442 5442 5443 5443 5444 5445 5446 5447 5448 5450 5451 5452 5454 5455 5457 5458 5459 5460 5460 5461 5461 5462
5460 5458 5456 5454 5451 5449 5447 5446 5444 5443 5442 5441 5440 5440 5439 5439 5439 5439 5439 5438 5438 5438 5438 5438 5439 5439 5440 5441 5442 5444 5445 5446 5448 5449 5450 5451 5452 5454 5455 5455 5456 5456 5456
5455 5453 5451 5449 5446 5444 5443 5441 5440 5438 5437 5436 5436 5435 5435 5435 5434 5434 5434 5434 5434 5433 5433 5434 5434 5435 5436 5436 5437 5438 5440 5441 5442 5443 5445 5446 5447 5448 5449 5450 5450 5451 5451
5449 5447 5446 5444 5442 5440 5438 5436 5435 5433 5432 5432 5431 5431 5430 5430 5430 5429 5429 5429 5429 5429 5428 5429 5429 5430 5431 5431 5432 5433 5435 5436 5437 5438 5439 5440 5441 5442 5443 5444 5445 5445 5446
5443 5442 5440 5439 5437 5435 5433 5431 5430 5429 5428 5427 5426 5425 5425 5425 5424 5424 5424 5424 5424 5424 5424 5424 5424 5425 5426 5426 5427 5428 5430 5431 5432 5433 5434 5435 5436 5437 5438 5438 5439 5440 5440